GFSSW_250_rhum_090.txt.gz
RH
41 37 36 45 46 43 46 57 88 100 100 100 100 89 88 85 83 88 70 71 53 46 38 48 82 68 75 74 100 85 90 94 100 100 100 100 100 100 100 100 100 100 97 92 96
41 37 39 38 49 52 46 45 56 90 100 100 100 100 96 93 95 98 90 78 60 54 45 39 41 93 77 72 72 86 89 100 100 100 100 98 88 87 100 100 100 100 98 93 89
52 69 90 92 77 84 93 91 78 87 83 88 94 80 87 100 100 100 100 73 65 69 49 44 38 41 100 100 85 88 99 100 100 100 100 100 99 96 95 100 100 100 96 88 100
88 84 99 100 97 100 100 100 100 100 97 92 75 80 64 65 54 53 65 63 88 76 54 41 42 39 67 100 100 93 100 100 100 100 100 100 100 99 100 100 100 100 100 99 99
99 77 71 94 95 75 84 61 67 82 71 70 52 50 60 73 78 71 76 71 56 68 60 56 42 41 53 90 98 100 100 100 100 100 100 100 100 100 100 100 100 100 100 98 62
97 93 90 63 66 55 58 58 60 55 52 47 55 60 65 74 89 78 71 77 56 68 59 53 45 42 46 81 100 99 100 100 98 100 100 100 100 100 100 100 100 100 100 82 65
70 58 56 70 77 74 62 68 62 50 53 60 55 58 70 50 55 54 37 36 44 56 51 48 42 42 41 70 100 100 100 100 97 100 100 100 100 100 100 96 88 100 98 91 82
100 80 81 97 76 75 72 67 75 57 59 55 53 54 52 50 43 30 28 33 31 34 35 34 38 38 40 50 90 100 100 100 100 100 100 96 96 98 92 94 96 92 84 82 82
100 87 94 88 87 70 72 84 83 61 69 67 60 51 43 43 38 30 29 28 27 23 28 31 36 42 57 64 85 100 100 100 100 100 100 100 100 100 100 98 98 91 91 88 87
100 88 90 87 68 72 82 71 60 62 62 60 61 52 48 41 28 28 36 28 22 23 25 34 41 46 75 81 92 100 100 100 100 100 100 100 100 100 100 100 100 99 88 86 85
94 100 100 83 82 89 96 66 57 75 76 63 56 51 46 41 30 25 23 21 16 20 30 35 38 49 93 100 100 100 100 100 100 100 100 100 100 100 100 100 100 100 95 99 88
100 91 93 100 97 100 92 75 91 80 86 90 57 43 44 33 29 21 16 14 13 19 21 34 50 81 95 100 100 100 100 100 100 100 100 100 100 100 100 100 100 90 85 89 78
100 100 100 97 93 85 65 67 69 59 53 66 48 40 35 24 20 17 15 14 15 15 19 23 49 64 88 100 100 100 100 100 100 100 100 100 100 100 94 98 100 100 100 100 100
100 100 100 96 98 90 71 80 71 53 33 37 45 39 26 18 16 14 15 15 14 16 16 16 35 59 96 100 100 100 100 100 100 100 100 100 100 100 100 100 100 100 100 100 100
100 100 100 89 93 83 73 80 48 41 32 31 30 25 18 13 12 11 8 10 11 14 12 22 44 54 84 100 100 100 100 100 100 100 100 98 100 100 100 100 100 89 80 75 71
100 97 100 98 100 98 85 54 39 38 28 24 20 16 12 9 9 8 7 7 8 9 13 16 33 48 85 100 100 100 100 100 100 89 91 95 100 94 100 100 94 83 77 77 65
100 100 100 100 86 72 62 48 39 34 21 14 15 11 8 8 8 9 8 7 8 8 9 15 24 50 90 99 100 100 100 100 100 97 100 98 88 72 76 86 92 73 62 52 56
78 81 85 89 79 56 55 51 35 22 16 12 10 8 7 9 9 8 8 8 8 9 8 10 19 53 96 100 95 100 100 100 100 99 86 99 100 81 74 74 64 58 48 48 57
79 91 90 71 62 54 55 37 27 17 14 9 8 7 8 7 6 6 6 6 8 10 9 10 17 33 76 97 100 92 100 100 100 100 100 97 91 87 95 76 63 54 51 66 55
94 70 47 52 55 48 38 25 20 14 9 8 7 6 6 5 5 5 6 6 6 9 10 10 15 34 83 92 98 98 100 99 85 76 87 85 80 78 76 66 57 52 67 61 62
48 47 56 47 44 37 28 19 16 10 9 8 6 5 5 5 5 5 6 6 5 8 11 13 15 38 82 99 100 100 100 100 98 98 100 100 93 85 76 71 59 57 69 68 74
44 63 46 41 34 29 21 16 10 9 8 7 5 5 4 4 5 5 7 6 6 8 13 15 17 27 79 90 92 99 100 100 98 99 100 100 98 95 92 87 66 70 68 69 59
55 42 41 31 27 22 14 9 10 8 6 6 5 5 4 5 5 5 6 6 6 10 14 17 18 20 42 86 94 98 100 100 100 100 100 100 99 94 84 76 70 74 74 58 47
43 49 30 28 23 15 10 9 8 6 5 5 5 5 5 5 5 6 7 7 8 11 14 18 18 19 33 62 77 91 100 100 100 100 99 100 100 89 68 62 68 77 60 45 41
60 39 35 27 17 11 10 8 6 5 5 5 5 5 5 6 5 5 8 6 6 9 10 15 18 21 29 50 72 72 90 100 99 96 93 95 100 75 72 65 79 68 51 44 40
54 45 28 18 13 12 9 6 5 5 5 5 5 5 5 5 5 4 6 6 6 6 9 12 15 17 23 41 71 77 89 89 91 84 81 95 96 72 78 74 98 61 50 43 52
59 44 22 14 14 10 7 6 6 5 5 5 5 5 5 5 5 4 6 7 7 6 7 10 13 16 18 21 39 64 79 91 84 74 98 99 91 77 72 87 88 51 49 49 84

GFSSW_250_rhum_096.txt.gz
RH
86 100 98 57 52 57 59 48 66 61 61 93 84 82 88 90 86 92 95 94 97 99 100 97 91 100 100 96 85 93 89 90 93 56 37 50 66 61 92 100 99 99 68 72 86
94 100 97 95 84 73 70 74 95 97 86 85 70 90 86 98 99 100 98 90 84 82 80 96 100 94 100 100 100 99 86 100 97 94 57 36 30 40 61 100 99 75 78 66 63
100 92 89 95 69 77 100 100 100 100 100 99 96 90 84 56 76 98 84 67 50 47 50 42 53 84 100 100 100 100 99 94 72 63 76 48 34 35 66 73 86 79 71 73 69
72 73 87 59 80 100 96 99 100 100 100 100 100 99 87 99 70 48 50 53 60 53 46 42 40 43 76 89 86 77 96 92 89 57 66 47 34 34 44 90 76 100 100 100 97
100 96 90 97 82 100 100 100 99 81 100 100 100 88 88 83 63 65 88 64 96 81 63 48 49 47 51 67 66 70 92 85 100 84 60 51 41 33 44 100 78 76 95 100 100
99 99 82 96 63 100 78 100 100 64 100 100 100 100 97 53 57 97 73 92 88 72 65 50 47 49 59 81 81 83 82 78 76 94 91 62 43 34 51 100 100 93 74 100 100
75 82 93 81 71 100 100 100 100 100 100 100 100 100 96 63 85 73 87 100 79 60 54 52 55 60 60 65 63 65 64 57 65 78 84 80 52 34 58 100 100 94 92 100 100
79 84 92 75 82 100 100 100 100 79 97 97 100 75 88 99 90 74 100 70 56 63 48 45 44 46 59 56 59 58 59 54 54 48 55 77 50 56 56 62 100 100 56 96 100
88 93 100 100 100 100 100 100 100 100 72 90 86 100 98 92 80 100 100 70 66 56 56 45 39 39 41 44 47 45 40 35 32 30 28 32 36 61 64 60 97 100 100 82 99
100 100 100 100 100 100 100 100 100 98 89 89 96 100 98 100 100 83 67 61 64 63 43 35 34 37 42 40 30 32 24 22 24 29 27 25 27 47 71 59 74 83 100 100 100
100 100 100 100 100 100 100 100 97 100 96 92 92 100 100 99 68 83 60 51 47 41 31 28 27 41 39 31 25 22 22 19 22 22 21 18 26 38 64 71 86 100 100 100 100
100 100 100 100 100 100 100 100 100 100 100 100 100 92 82 75 69 52 43 40 29 26 25 25 22 26 23 23 17 19 18 18 19 18 19 21 27 43 64 100 100 100 100 100 100
100 100 100 100 100 100 99 100 100 100 99 100 100 87 80 54 54 44 38 28 24 24 22 19 20 18 16 16 16 14 15 17 15 18 23 22 26 45 86 92 100 100 100 100 100
100 100 100 100 100 100 100 100 100 100 86 75 76 62 72 81 58 39 36 32 23 23 22 18 21 16 14 12 16 12 16 15 16 19 26 29 33 57 71 75 100 100 100 100 79
100 100 100 100 100 100 100 100 100 91 74 56 52 51 56 42 33 34 28 21 20 18 17 16 13 15 11 12 12 12 13 13 16 18 23 37 35 63 68 66 97 100 100 100 100
100 100 100 100 100 100 100 92 90 76 67 77 60 47 38 34 25 24 24 23 18 13 13 12 12 12 12 9 11 12 13 13 14 16 23 50 43 65 74 70 87 100 100 100 100
100 100 100 100 100 100 93 94 100 100 75 54 43 38 35 30 30 24 21 16 15 13 9 8 8 8 8 8 9 10 12 13 16 17 37 57 61 76 100 76 97 100 100 100 100
100 100 99 100 100 100 100 100 99 100 75 56 45 39 30 29 27 21 14 14 13 7 6 6 6 6 6 7 7 9 10 15 17 23 51 73 72 99 100 100 83 100 100 100 100
100 100 100 100 98 93 100 100 100 96 78 64 58 43 34 33 22 16 13 11 7 6 6 5 5 6 7 6 7 8 10 17 19 40 70 94 100 78 100 100 100 97 100 100 100
83 100 100 100 100 97 97 82 78 77 73 55 46 33 32 29 20 15 10 7 6 5 4 4 5 7 6 8 10 9 11 12 19 50 100 100 100 100 100 100 100 100 99 96 100
96 96 100 100 100 100 90 69 72 68 46 42 34 29 25 18 16 11 7 6 5 4 4 4 5 6 7 9 13 11 11 15 35 58 100 100 100 100 100 100 100 100 100 100 100
100 83 100 100 100 72 55 53 46 41 38 34 27 25 17 15 10 8 6 4 4 5 5 5 6 7 8 9 12 13 11 26 46 72 100 100 100 100 100 100 100 100 100 100 100
87 94 77 70 62 55 54 50 42 36 30 28 24 18 14 9 8 5 4 4 5 6 6 6 8 9 10 12 14 16 20 36 62 94 100 100 100 100 100 100 100 100 100 100 98
100 90 73 60 57 55 44 40 34 28 31 25 21 14 8 7 5 5 4 5 6 7 8 9 10 12 14 16 21 36 66 96 100 100 100 100 100 100 100 100 100 100 100 100 100
83 80 71 66 66 56 48 38 34 36 22 22 14 8 7 5 5 5 4 6 6 8 10 9 12 14 23 27 31 92 100 100 100 100 100 100 100 100 100 100 100 100 100 100 100
86 88 84 67 66 56 44 40 38 24 22 14 9 7 5 6 5 5 5 7 8 10 11 11 9 12 28 28 41 95 100 100 92 57 78 100 91 95 100 100 100 100 100 100 95
100 80 92 87 67 52 49 44 28 24 16 11 9 6 6 5 5 5 6 7 9 10 12 12 12 14 22 14 33 61 85 84 98 100 100 100 100 100 100 100 100 100 87 100 100

GFSSW_250_rhum_099.txt.gz
RH
100 100 84 74 72 82 100 99 83 55 51 43 39 89 84 100 100 100 94 99 63 72 79 69 77 78 85 68 71 74 59 60 72 74 82 100 100 100 64 41 37 26 83 79 56
100 99 70 65 70 79 57 80 98 100 100 94 94 85 71 79 100 100 100 100 100 88 52 61 74 56 56 66 52 41 37 51 75 72 61 72 88 100 75 51 48 39 72 100 57
92 58 59 98 94 100 100 94 55 91 85 74 64 100 100 100 100 95 100 100 100 99 77 77 48 81 76 56 59 43 37 39 42 71 79 75 62 79 99 62 42 56 36 70 86
50 61 72 100 100 100 95 100 99 86 70 58 60 67 98 97 100 66 78 99 100 100 100 88 55 58 44 66 50 38 43 40 39 44 78 91 93 83 87 61 48 48 53 42 59
90 74 96 100 100 100 100 87 58 100 81 74 55 75 97 76 100 91 67 87 100 100 74 68 71 73 66 77 49 38 42 44 54 50 56 86 84 85 70 85 72 65 50 43 41
54 73 100 100 100 100 100 59 59 47 84 88 76 63 100 95 95 99 100 98 100 100 63 62 76 86 100 77 64 38 36 42 51 65 61 62 69 64 71 91 85 80 68 37 35
67 92 61 98 100 99 77 80 67 60 68 88 97 98 100 100 100 100 100 88 70 81 89 85 99 99 98 68 56 53 46 40 40 46 52 71 41 61 85 79 63 79 72 47 35
72 74 99 100 96 98 90 95 78 71 81 95 99 98 96 100 100 88 100 100 98 100 84 100 100 72 58 56 62 51 43 43 43 35 41 46 29 64 65 58 44 64 61 45 42
100 100 100 100 100 100 98 95 100 96 100 100 93 100 95 97 85 96 100 88 82 97 100 100 91 87 65 50 46 41 35 33 30 31 35 34 24 38 46 39 30 38 47 48 38
100 100 100 100 87 73 94 94 91 96 84 66 71 93 99 100 100 100 100 100 100 100 100 88 72 63 53 41 33 29 27 26 21 29 28 26 16 21 31 35 29 33 40 47 43
86 94 100 100 89 75 72 74 81 100 100 91 91 89 85 99 97 100 100 100 100 69 79 61 48 47 39 34 29 27 21 18 19 19 21 16 12 16 20 23 30 29 31 44 69
66 88 79 94 96 72 51 66 97 100 100 100 100 93 93 90 97 100 100 88 61 56 47 43 43 38 26 26 24 20 19 18 16 17 15 12 12 15 17 21 29 30 34 41 66
100 99 91 100 100 100 100 100 100 100 95 100 92 100 92 68 89 88 65 50 50 50 41 34 32 31 31 26 24 18 15 14 12 14 11 12 11 16 20 21 28 28 31 36 56
100 100 99 90 100 100 100 100 100 100 99 100 99 84 90 96 82 88 76 50 39 38 34 34 33 25 23 22 20 12 16 12 10 11 11 13 13 16 21 17 19 24 28 37 68
100 100 92 100 100 100 100 100 100 100 100 100 100 100 100 100 99 88 78 64 54 39 25 23 23 24 20 16 15 12 12 11 10 9 11 14 11 22 18 17 20 22 27 43 65
78 100 87 81 98 100 100 100 100 100 100 94 100 100 99 98 92 84 96 67 39 28 26 21 23 17 14 13 12 11 10 10 9 10 11 17 12 20 18 28 22 28 38 59 74
66 79 66 65 93 82 100 100 100 100 86 88 87 81 77 69 57 50 39 34 28 28 22 21 16 14 10 8 7 7 7 9 9 11 17 12 10 31 25 30 44 37 49 100 100
55 56 60 85 78 80 74 84 87 100 100 100 100 98 83 51 36 27 27 26 29 24 18 14 14 8 7 6 6 6 6 7 9 12 14 13 24 30 42 43 85 58 69 81 100
56 43 60 77 76 88 76 81 78 81 98 98 98 83 56 51 29 25 24 25 25 22 15 10 8 6 5 5 5 5 9 8 9 11 14 22 30 44 74 62 100 90 67 81 79
67 73 96 77 92 90 88 91 93 85 78 76 75 67 54 39 30 26 25 24 19 14 9 8 6 5 4 4 5 8 7 7 8 12 20 33 70 91 100 100 100 99 88 80 79
86 97 98 100 100 100 100 100 95 88 85 82 61 49 44 35 30 24 24 19 16 8 8 6 4 4 5 5 6 9 9 10 12 20 33 74 100 100 100 100 100 71 100 98 96
100 100 100 100 100 100 100 100 100 100 90 70 58 54 40 28 25 24 20 15 9 8 6 5 5 5 5 7 8 11 9 12 17 38 54 100 100 100 100 100 100 100 96 100 100
100 100 100 99 98 94 90 89 91 80 66 60 52 36 25 26 21 17 13 9 7 6 6 6 6 6 8 11 12 14 16 15 18 52 93 100 100 100 100 100 92 100 100 92 100
100 100 100 98 94 96 88 71 77 73 66 57 38 28 25 19 16 11 9 7 7 6 6 6 7 7 9 12 12 15 17 17 25 50 100 100 100 100 100 100 100 95 100 100 100
97 97 97 99 100 86 75 83 76 70 55 40 35 24 19 16 10 8 8 7 6 7 7 7 8 10 12 15 18 19 16 26 62 88 100 100 98 100 100 100 100 100 66 98 100
86 86 84 93 85 82 86 71 59 49 44 40 29 21 17 11 8 8 8 7 6 7 7 8 10 13 13 18 23 23 29 72 100 100 77 100 100 100 100 100 100 100 94 95 100
90 88 80 85 92 93 92 70 58 47 43 38 26 21 12 9 7 8 8 8 8 8 8 9 12 12 18 19 28 36 55 71 76 76 59 87 98 100 100 100 100 100 100 100 99

GFSSW_250_rhum_102.txt.gz
RH
47 52 51 44 55 94 100 100 91 52 69 45 49 38 69 77 78 87 84 100 100 100 100 93 72 79 92 92 82 80 73 68 50 36 38 49 44 50 72 65 53 62 70 61 57
37 36 45 61 54 81 100 100 71 72 92 80 100 98 86 63 60 54 52 59 79 100 100 100 96 59 86 100 100 100 77 61 49 48 36 41 39 39 39 51 82 81 56 56 42
37 35 43 73 74 67 100 100 68 79 99 81 94 87 58 49 96 59 39 47 59 75 100 78 100 84 83 90 100 99 54 52 44 50 42 36 39 39 38 38 54 74 71 53 82
42 44 45 66 92 94 66 58 67 71 100 100 100 100 85 49 46 98 61 74 74 96 100 99 54 72 79 94 68 67 54 49 65 66 54 57 47 40 41 37 41 79 91 72 62
45 50 50 70 74 88 100 88 56 53 97 100 100 100 87 51 54 40 75 91 74 80 84 86 84 100 99 87 70 58 81 77 100 82 60 47 42 45 38 56 94 100 100 99 66
46 58 52 67 63 76 76 93 100 94 100 100 100 100 82 78 50 51 61 74 53 81 95 100 100 100 78 100 85 87 93 100 100 93 82 47 37 36 56 76 64 75 85 98 100
55 55 53 53 62 70 74 67 66 84 90 100 96 62 80 86 65 65 75 67 96 99 88 79 100 94 95 89 100 100 80 99 100 90 68 43 25 32 39 52 44 52 64 87 98
59 57 63 53 61 73 70 88 97 90 76 100 80 77 68 74 66 89 99 63 90 52 94 83 85 100 100 100 100 100 100 100 100 88 58 48 28 32 32 33 39 39 38 57 79
67 66 81 59 64 60 87 100 94 96 98 100 100 100 86 69 65 75 75 56 50 63 74 100 75 91 98 100 100 93 58 54 57 62 54 42 23 25 30 25 24 30 34 40 48
77 68 62 73 73 67 88 90 100 99 97 86 85 100 98 78 60 48 72 57 88 89 86 64 85 97 100 100 72 58 49 49 47 86 59 32 18 17 23 23 20 23 26 33 32
99 100 98 92 70 72 72 61 57 64 72 72 80 72 73 56 56 58 67 84 94 84 95 88 68 74 77 79 70 62 48 39 66 61 44 24 16 14 16 17 18 18 20 23 24
100 100 100 100 89 77 73 50 62 60 67 74 67 62 50 51 60 86 100 99 83 76 98 65 72 100 86 93 82 78 68 63 34 30 25 16 11 11 12 16 18 16 16 18 17
63 89 100 100 100 100 100 100 99 95 87 92 99 92 69 92 100 100 100 100 97 97 96 95 100 100 94 73 66 50 75 30 24 25 20 15 8 11 14 14 16 15 14 14 20
70 83 94 100 100 100 100 100 100 100 92 100 100 100 100 96 100 100 87 77 86 90 93 95 99 85 83 58 66 45 39 25 21 17 12 14 9 15 14 10 12 14 13 15 19
72 82 76 97 100 100 100 100 100 100 100 90 100 100 100 96 89 100 100 100 88 74 57 71 49 50 40 46 43 34 24 19 15 11 9 14 10 17 10 12 13 13 14 16 17
82 78 62 59 96 100 100 100 100 100 86 97 100 100 100 95 94 91 96 90 94 97 79 63 56 45 42 38 29 20 16 14 11 10 10 11 8 16 10 10 10 15 19 20 22
59 62 57 51 73 94 91 85 76 79 86 84 100 100 100 100 98 98 96 90 88 72 63 51 49 44 44 25 18 17 13 10 9 8 9 7 13 12 9 11 13 19 21 23 26
53 51 47 49 58 66 68 65 73 83 91 80 77 67 72 74 83 80 70 87 82 60 37 32 38 46 33 15 16 12 8 6 6 7 7 9 12 10 13 15 22 32 46 38 36
38 40 41 43 48 71 70 60 67 71 76 72 78 84 88 72 69 74 70 58 42 37 34 33 20 18 13 13 9 6 6 5 6 7 8 11 15 15 17 24 52 93 96 50 66
34 39 42 48 49 60 75 68 79 71 64 74 75 75 81 76 59 42 34 34 32 33 29 18 15 12 11 7 6 5 4 5 6 9 11 14 19 21 28 91 96 100 100 83 90
30 31 38 43 56 67 63 56 56 70 69 75 93 82 71 64 54 44 39 38 32 27 20 15 12 9 7 6 5 5 6 6 9 13 13 17 42 41 58 100 100 100 98 100 83
66 87 76 65 69 76 78 84 79 87 97 95 91 78 77 61 52 42 34 32 27 20 16 11 8 7 5 5 5 6 7 14 18 15 16 32 70 86 93 100 100 100 100 99 99
98 96 85 87 88 100 87 92 95 88 96 87 80 70 57 35 31 33 32 26 18 13 8 7 6 6 5 6 6 8 13 18 16 18 26 43 89 100 100 100 100 100 99 100 99
100 93 98 100 100 96 86 86 84 86 82 75 75 60 42 32 33 36 25 18 10 9 7 6 6 7 7 7 7 10 15 18 16 18 21 60 98 100 100 100 100 100 99 84 100
99 90 100 97 91 95 93 92 94 98 98 83 69 48 37 37 31 26 16 11 9 7 6 6 7 8 9 9 13 22 23 21 23 34 43 92 100 100 100 100 100 100 100 74 100
99 100 99 100 100 100 90 94 87 88 70 59 46 33 33 31 27 19 13 9 8 7 6 7 9 9 10 12 16 23 29 27 27 54 79 67 91 85 76 81 98 100 100 81 76
98 87 90 92 99 100 85 76 76 81 63 47 41 38 32 29 20 16 10 9 8 7 7 10 10 12 12 13 20 24 32 42 61 67 80 80 57 89 90 68 66 82 90 100 100

GFSSW_250_rhum_105.txt.gz
RH
97 81 62 60 50 38 37 34 32 39 53 100 100 100 84 89 70 69 67 75 57 47 48 37 33 46 80 85 85 99 87 100 88 100 100 97 78 55 38 36 33 31 31 37 36
100 96 62 63 56 43 38 39 36 41 50 47 98 100 98 94 99 76 98 93 78 60 49 65 42 37 54 74 74 88 74 97 100 100 86 60 60 55 39 40 46 37 31 30 32
100 100 88 56 57 49 39 38 36 47 69 71 69 100 100 94 100 100 100 99 89 79 52 38 70 53 50 65 78 82 78 71 79 100 100 84 73 71 62 55 45 52 47 35 32
100 100 100 72 56 54 50 45 55 53 74 100 100 94 96 88 77 65 100 100 100 100 69 46 40 55 53 48 56 49 56 95 100 96 93 100 71 90 100 97 86 83 62 55 35
100 100 95 54 62 52 49 52 52 53 62 100 100 100 87 78 66 99 100 100 100 98 82 54 45 39 46 55 66 73 100 100 100 100 100 80 90 98 81 100 96 58 59 48 41
76 100 97 62 70 56 55 70 59 55 61 99 99 88 97 100 100 100 100 100 100 80 67 56 51 49 53 70 84 100 98 66 76 100 100 100 71 77 100 100 100 97 66 40 44
60 80 79 73 61 62 63 59 59 68 81 83 85 92 86 91 100 100 100 97 76 57 54 48 46 50 49 42 59 44 64 100 100 99 100 88 79 99 99 63 50 56 47 39 34
74 56 69 69 70 64 61 57 62 59 64 74 78 86 100 88 98 93 82 99 89 100 70 62 57 43 38 41 52 64 52 90 73 71 100 100 99 91 60 58 59 53 42 35 34
69 66 60 54 60 76 64 73 62 62 70 96 82 82 97 99 92 84 91 83 86 75 71 70 57 48 41 54 75 88 73 72 88 99 100 83 63 70 72 75 59 53 47 54 37
66 78 66 71 58 49 64 63 54 57 59 79 93 78 82 84 78 74 78 77 75 57 57 55 48 37 38 88 100 97 73 68 99 55 65 63 56 70 78 76 74 85 53 37 34
67 59 60 69 67 63 48 47 66 59 55 52 52 56 65 73 68 58 52 42 43 44 46 45 46 55 79 90 84 68 61 65 88 100 86 77 62 74 74 72 71 54 34 31 27
73 74 62 60 76 80 73 63 70 66 70 85 97 71 50 48 48 45 46 60 67 54 50 58 72 98 93 100 98 79 75 80 80 100 74 71 48 54 67 47 44 29 22 22 23
100 94 81 68 70 82 97 79 73 60 76 88 79 90 87 94 98 100 100 96 90 68 80 98 100 81 73 77 79 86 100 82 80 99 77 58 36 43 30 28 22 16 14 14 12
100 100 100 98 100 93 74 77 74 75 78 97 100 97 91 98 100 100 100 100 99 99 84 75 89 76 69 78 74 71 89 65 62 72 55 71 26 22 33 14 13 14 10 8 9
100 100 99 100 100 100 92 90 82 82 82 79 95 100 100 94 100 100 100 100 100 100 100 100 99 100 93 89 87 76 73 74 71 49 34 31 37 9 21 12 10 8 7 10 12
94 94 100 100 98 100 78 82 92 80 80 76 76 100 97 67 76 94 100 100 96 98 100 96 92 85 80 92 89 76 70 60 45 31 14 33 12 16 10 11 9 8 12 14 12
46 49 53 62 81 88 93 89 93 86 60 65 65 79 82 62 84 100 97 94 85 73 77 87 76 75 73 62 65 60 43 36 23 18 14 16 13 10 9 8 8 11 11 13 14
18 25 29 32 38 46 79 77 80 59 57 54 67 64 57 58 58 81 93 89 78 70 59 71 70 58 71 58 50 54 31 23 13 17 15 12 8 9 8 8 11 12 12 13 17
17 21 25 32 39 34 38 48 51 45 48 58 58 50 48 59 60 64 69 71 74 65 66 61 54 47 50 39 27 23 18 16 15 13 9 8 8 8 8 12 14 17 17 18 21
18 20 24 33 32 34 38 45 44 46 41 42 45 44 43 47 60 72 76 73 73 56 45 38 38 45 33 20 16 14 15 12 10 8 8 7 7 9 12 18 30 31 37 24 32
21 24 26 26 27 29 31 36 44 50 46 43 38 47 52 66 56 52 56 53 44 38 42 47 28 14 15 14 14 12 9 8 8 8 7 7 8 9 18 60 70 82 63 68 54
25 24 27 29 34 43 44 57 56 55 55 59 65 57 65 72 82 75 66 46 44 46 50 27 15 13 13 11 9 8 7 8 8 8 9 13 14 16 46 98 100 100 61 79 97
29 37 41 48 54 67 71 77 71 70 78 79 86 90 100 97 85 70 51 42 52 43 24 14 14 13 9 8 7 7 9 8 8 8 11 17 20 55 64 100 100 100 85 100 100
57 71 57 95 100 88 78 77 87 97 100 97 93 92 86 75 62 60 54 49 37 24 18 14 10 8 6 7 8 10 10 10 11 12 18 17 23 93 74 100 100 100 96 100 100
78 75 82 99 99 86 91 87 100 89 87 100 91 84 73 54 55 46 39 35 25 19 12 9 7 7 7 8 9 10 9 9 13 17 20 17 23 77 80 97 100 100 100 94 100
88 92 82 91 89 90 97 98 100 100 98 88 77 58 52 51 41 46 37 26 16 11 9 7 7 7 8 10 11 14 15 16 17 29 26 29 29 40 89 77 94 100 100 100 92
86 95 95 96 98 100 100 94 90 89 83 74 62 57 55 56 51 46 31 16 12 10 8 7 7 8 10 12 16 30 40 37 44 32 27 36 47 37 56 90 78 91 100 100 78

GFSSW_250_rhum_108.txt.gz
RH
100 100 100 95 98 78 81 100 93 64 55 42 34 40 45 61 83 100 100 100 100 91 70 56 57 78 75 50 47 34 32 40 75 100 100 100 100 100 82 70 88 84 66 48 36
100 99 90 82 72 59 65 80 100 85 70 43 39 37 50 49 89 98 100 100 100 100 100 99 100 100 100 83 67 48 36 46 47 80 100 99 96 93 82 95 96 80 68 48 39
100 90 77 54 48 52 46 55 67 96 75 51 43 36 40 51 60 88 96 85 100 100 100 92 94 100 100 100 84 71 41 44 43 54 62 57 84 100 100 100 100 100 75 44 38
100 84 48 43 48 65 58 56 92 100 94 66 43 45 41 44 66 66 100 100 100 100 100 99 91 100 100 100 100 81 48 41 46 60 51 57 57 99 100 100 100 100 94 61 64
83 63 39 38 54 52 53 52 64 75 92 58 49 53 50 57 53 71 88 90 99 100 92 92 89 88 100 100 99 64 52 45 47 57 84 96 100 100 100 100 100 100 100 100 83
92 67 48 39 42 64 66 66 56 90 87 69 57 59 53 61 58 72 88 100 90 98 100 100 100 100 93 96 89 69 46 47 41 48 50 72 92 70 92 97 91 97 97 100 100
100 85 67 54 40 54 58 71 75 58 74 79 68 58 59 71 74 61 94 100 100 100 100 100 100 100 89 76 70 88 66 57 54 48 41 38 52 65 100 100 87 84 100 100 100
75 73 65 68 51 59 67 69 75 78 73 64 75 72 54 59 68 80 85 86 100 100 100 100 96 93 79 86 81 72 66 63 57 49 42 38 52 54 64 84 76 83 100 100 100
72 49 44 57 63 44 54 63 66 66 65 77 79 62 83 66 59 71 67 92 93 97 96 100 100 92 85 76 70 66 56 49 52 46 42 36 45 65 66 61 81 100 72 90 85
94 71 43 57 49 62 43 53 55 60 58 59 58 66 58 76 74 70 80 94 74 71 91 96 83 78 80 71 59 46 43 42 40 40 46 52 61 100 68 54 74 94 72 78 99
56 52 40 44 43 66 62 46 53 56 72 52 50 50 58 69 60 70 61 61 62 55 59 58 60 63 66 50 43 38 34 32 56 61 71 79 80 95 88 58 60 100 100 100 100
40 42 55 42 48 52 54 52 46 64 68 64 68 52 49 52 68 67 58 60 54 51 52 53 47 46 42 39 39 31 42 61 62 94 69 54 49 57 67 66 88 100 100 100 98
53 56 65 79 72 68 59 60 60 53 63 68 82 100 74 62 67 66 74 82 80 88 67 54 54 50 52 59 81 97 99 86 64 67 49 40 38 68 81 87 86 89 91 88 60
63 75 93 66 92 81 97 100 98 100 90 92 100 93 95 100 96 78 87 86 89 82 83 85 99 100 100 100 100 100 90 75 82 69 58 65 41 62 75 65 76 60 39 25 17
88 100 100 100 100 100 100 100 100 100 100 100 99 100 100 100 92 100 100 100 100 100 100 98 84 100 100 78 91 87 94 81 80 71 55 92 43 25 87 59 50 37 20 14 16
88 100 100 100 100 100 100 100 100 98 97 100 83 75 98 98 99 91 100 97 97 96 100 86 70 83 84 75 78 97 94 88 66 63 61 67 47 18 27 24 17 16 14 12 12
65 75 97 100 100 99 91 70 55 66 75 45 69 67 59 51 61 71 91 95 85 79 65 51 58 65 62 64 68 61 47 56 65 53 49 40 24 14 13 11 12 12 11 10 8
48 46 52 60 59 31 28 32 32 36 27 25 28 30 29 30 40 42 40 47 53 48 39 48 69 67 64 62 58 66 55 56 32 31 25 23 14 12 14 12 11 10 8 7 6
34 27 25 23 21 18 14 14 14 18 15 21 32 28 30 36 40 44 40 42 44 44 44 47 62 65 66 62 68 78 52 36 22 28 20 22 16 21 13 11 10 7 7 7 7
15 12 11 12 13 13 12 15 18 24 31 30 32 34 36 36 34 39 42 40 35 45 48 52 48 57 51 52 46 49 32 26 23 21 21 19 17 13 10 9 8 8 9 10 13
13 12 15 16 16 17 19 24 31 34 38 44 46 46 37 36 35 40 46 45 52 60 64 52 49 58 64 51 46 35 26 22 20 20 17 13 11 10 8 8 9 11 13 17 20
14 17 18 19 21 25 30 32 36 40 45 42 40 37 54 53 67 84 94 75 74 70 57 57 57 49 44 34 22 22 19 17 15 11 10 10 9 8 9 13 14 17 23 26 30
17 19 23 26 28 32 38 48 46 49 47 57 58 62 80 90 76 80 83 73 64 57 62 54 40 33 22 18 19 17 14 11 10 9 9 9 9 9 14 27 35 27 31 50 64
22 29 29 33 40 57 74 85 81 71 76 79 88 93 93 92 96 97 81 66 64 62 52 34 25 22 19 16 12 11 10 10 9 9 9 10 12 10 22 49 56 50 80 100 100
31 46 47 67 66 82 73 79 88 87 82 92 95 96 96 100 97 80 61 55 59 47 29 22 21 19 14 11 9 9 9 9 9 9 12 14 20 22 40 62 65 92 84 100 100
44 66 62 62 70 73 99 96 97 97 99 97 93 98 100 99 81 65 60 47 38 26 21 20 15 12 10 9 8 9 10 10 9 12 22 24 29 29 44 48 94 84 81 100 100
49 63 88 98 89 85 85 92 98 90 94 100 100 100 89 68 54 58 54 47 29 23 20 14 11 10 10 10 10 12 10 11 12 26 33 40 35 26 48 63 56 61 67 97 100

GFSSW_250_rhum_114.txt.gz
RH
100 100 88 100 100 100 100 87 82 89 91 89 90 81 86 85 72 68 58 44 31 22 26 28 32 36 46 46 63 99 100 100 100 100 78 93 100 100 78 79 90 85 60 48 44
100 96 99 100 100 78 84 82 65 100 99 100 90 94 91 86 73 63 63 54 42 36 26 26 31 44 38 40 42 57 98 100 100 100 100 100 100 99 90 96 100 91 72 54 55
100 98 98 100 100 100 100 99 100 100 100 100 100 100 91 95 98 81 74 65 50 43 35 30 33 35 42 35 41 49 64 92 100 100 100 100 100 100 100 94 100 96 83 62 59
76 94 88 100 100 100 100 100 82 90 100 100 100 100 100 89 84 95 86 73 64 55 44 38 27 32 41 46 48 47 66 75 92 100 100 100 100 100 100 100 98 89 94 73 66
61 48 66 91 100 100 100 96 99 58 99 100 100 100 100 100 94 99 94 90 77 62 52 43 32 37 36 48 51 48 70 100 100 100 100 100 99 88 100 100 100 97 100 99 88
100 90 85 100 100 100 100 98 82 87 97 100 100 100 100 100 100 98 95 89 80 67 51 46 43 50 46 40 44 65 66 86 100 100 100 100 99 100 100 100 100 100 99 97 94
100 100 100 100 100 100 100 100 100 94 64 89 100 100 100 100 100 100 100 96 79 58 49 44 46 57 58 52 42 47 64 100 100 100 100 100 100 100 100 100 100 100 100 97 93
100 99 99 100 100 100 100 100 100 92 73 100 100 99 100 100 100 100 100 96 84 64 51 51 61 62 70 64 54 51 55 68 87 100 100 100 100 100 100 100 100 100 100 100 100
100 98 98 95 97 100 100 100 100 67 82 100 91 79 100 100 100 100 100 99 84 73 60 53 55 54 61 64 72 61 55 57 86 100 100 100 100 100 100 100 100 100 100 99 92
100 100 98 99 96 100 100 100 87 68 52 90 82 78 80 100 100 100 100 85 74 63 53 58 50 61 60 61 70 69 76 79 81 97 100 100 100 100 100 100 100 100 100 99 95
98 100 82 100 100 91 100 100 68 52 100 79 88 90 98 87 95 94 86 80 66 58 51 55 54 61 58 58 51 57 69 76 88 94 88 100 100 100 100 99 95 81 67 63 63
39 48 33 66 97 96 82 82 99 92 88 100 100 100 83 100 89 74 66 55 44 47 51 46 48 47 48 55 52 44 44 52 71 76 82 86 85 73 70 66 63 60 54 52 50
40 41 64 83 96 94 86 72 90 73 69 94 100 100 92 99 87 72 47 45 44 43 52 65 66 53 55 69 64 58 50 48 42 45 48 55 55 59 62 58 52 50 51 48 44
69 72 58 97 65 100 100 100 99 100 100 100 97 86 100 99 75 62 50 50 52 51 53 74 90 75 82 95 97 97 88 85 58 49 47 39 37 55 48 43 46 73 59 62 51
99 99 77 75 93 89 99 99 99 94 71 64 56 61 55 64 67 54 51 52 50 46 46 42 41 39 42 44 58 93 100 100 100 79 47 51 35 52 68 38 44 47 46 44 48
100 100 100 94 86 73 78 74 71 63 71 79 70 60 60 71 61 60 67 63 55 42 35 26 18 17 21 26 30 32 36 39 50 46 34 50 42 51 56 39 26 32 40 32 27
100 100 100 100 100 87 92 86 77 73 83 73 90 96 95 88 68 60 58 56 45 35 30 21 15 12 14 14 14 19 20 22 24 29 26 25 30 43 30 33 28 32 32 31 25
100 100 100 100 76 100 95 100 90 91 95 83 79 83 99 93 68 62 53 43 30 18 14 11 10 12 13 14 13 17 19 20 18 22 23 23 26 26 26 27 29 26 23 25 32
82 87 98 100 100 97 100 98 99 94 90 79 68 86 82 75 56 45 40 30 18 15 14 13 18 20 24 25 30 25 26 27 25 24 24 27 23 24 28 24 19 24 25 29 24
70 73 75 94 100 72 78 91 95 98 83 59 55 59 64 58 46 32 23 15 14 14 17 22 26 48 37 38 35 36 32 27 30 28 27 24 25 21 21 23 22 25 21 18 21
64 50 50 50 53 46 46 59 65 63 48 44 49 60 55 43 28 17 15 13 15 25 34 39 50 45 39 39 37 47 41 42 41 37 34 25 22 20 22 27 28 20 18 17 13
58 48 48 49 48 49 51 50 49 43 43 42 43 40 26 22 16 15 16 21 41 43 54 64 64 47 60 58 55 55 55 50 38 30 29 30 32 18 23 23 19 16 14 11 10
42 46 46 41 44 51 54 53 43 44 45 34 24 23 19 15 16 28 40 50 53 65 74 72 70 71 72 74 62 58 36 30 31 34 30 21 16 22 20 17 14 12 11 13 17
29 24 22 27 31 43 35 31 30 29 25 26 22 17 17 32 47 54 65 69 72 64 71 78 81 78 71 71 56 34 26 27 28 24 20 18 19 16 14 13 12 13 22 31 84
14 12 15 18 22 25 20 22 24 23 22 18 17 20 35 58 64 82 83 68 71 75 76 80 79 76 69 55 33 29 27 23 22 18 15 12 13 14 13 14 16 24 40 91 100
11 16 22 22 18 18 22 25 22 20 18 21 27 49 80 81 78 74 77 81 81 84 86 82 81 59 44 35 28 32 26 20 15 13 10 11 14 15 19 23 41 37 75 100 100
22 24 18 21 22 22 23 19 19 21 31 44 76 77 82 79 81 84 85 88 92 87 81 73 54 49 40 35 36 23 16 14 13 11 12 15 20 25 28 44 60 97 100 100 100

GFSSW_250_rhum_117.txt.gz
RH
93 85 99 100 100 65 71 100 100 100 100 91 74 67 54 48 71 67 84 85 83 92 84 76 62 56 53 49 38 28 28 33 45 48 100 100 100 100 100 100 96 100 100 95 85
100 89 78 91 100 100 100 100 92 98 100 100 80 78 99 100 99 100 100 100 95 92 85 73 58 55 59 56 45 36 27 29 31 39 50 100 100 100 100 100 100 100 100 100 100
100 100 100 100 98 100 100 74 85 64 100 100 100 100 100 90 58 74 100 100 92 91 88 87 82 86 72 65 50 41 30 26 31 31 42 54 88 100 100 100 100 100 100 94 100
100 96 92 80 82 67 100 56 45 52 94 100 100 100 99 85 76 78 95 100 100 99 100 100 100 90 90 76 58 44 37 37 28 35 40 47 56 99 100 100 100 99 95 100 100
100 100 100 94 100 100 100 100 96 83 72 100 100 100 100 100 99 83 65 100 100 100 100 100 100 98 93 80 67 50 50 42 34 38 43 53 82 82 100 100 100 100 100 100 92
98 100 94 98 100 100 100 100 97 100 100 100 100 100 100 98 99 73 70 66 92 100 100 100 100 100 97 88 71 66 61 60 48 37 37 44 71 100 100 100 100 100 100 100 99
100 100 100 87 80 100 99 89 84 100 100 100 100 100 100 100 100 97 68 45 60 100 100 100 100 100 98 87 77 69 64 61 65 48 50 44 47 78 100 100 100 100 100 100 100
84 99 98 92 96 96 100 100 80 100 100 100 100 100 100 100 100 100 100 94 78 100 100 100 100 100 100 95 83 70 64 58 56 54 48 51 51 76 71 100 100 100 100 100 100
100 100 93 80 76 88 99 100 96 100 100 100 100 100 100 100 100 100 96 83 82 99 100 100 100 100 98 95 83 78 68 60 57 55 63 55 56 48 66 100 100 100 100 100 100
100 100 100 100 95 100 100 95 100 100 100 100 100 100 100 100 100 100 90 100 54 83 100 100 100 75 86 87 69 58 53 55 60 66 56 65 68 60 57 67 100 100 100 100 100
100 100 100 100 100 100 96 100 100 100 100 100 100 100 100 100 98 87 100 82 55 59 71 84 92 92 91 93 84 70 48 47 49 42 50 54 49 70 71 67 78 100 100 100 100
47 100 100 95 96 87 82 100 100 85 53 58 54 58 92 95 98 100 98 79 73 81 65 62 54 77 84 88 83 65 53 41 47 47 41 51 50 46 61 71 68 74 87 100 100
45 79 83 58 81 100 99 61 47 46 45 38 44 74 74 70 88 76 97 100 87 95 94 84 75 75 74 62 62 60 47 44 52 47 47 64 48 58 50 52 64 71 74 77 80
66 46 44 40 48 83 100 100 64 49 44 50 44 46 87 91 94 100 95 100 100 100 81 80 81 60 57 51 50 48 57 47 39 35 37 44 36 46 70 55 33 46 72 70 70
69 64 71 70 55 65 92 71 88 72 44 45 50 57 64 69 74 99 100 96 98 78 65 74 64 62 59 67 55 51 47 38 30 26 22 28 27 21 100 33 25 36 41 43 50
100 74 93 86 71 65 70 92 97 65 65 72 94 77 82 100 91 67 70 87 86 65 58 60 48 60 63 57 57 44 32 20 14 12 12 15 16 18 25 52 24 27 49 63 55
100 100 100 100 98 89 76 86 83 100 99 79 100 100 89 89 100 100 84 62 74 63 76 71 70 66 38 48 32 24 17 13 11 10 9 12 12 17 16 24 30 27 27 32 63
100 100 100 100 100 100 100 99 72 74 85 64 95 100 100 81 96 100 89 81 69 75 89 78 64 45 37 32 16 12 12 13 10 12 11 10 12 12 19 19 21 21 20 23 23
100 100 98 90 100 100 100 100 100 100 100 98 88 82 90 87 80 83 78 86 71 71 74 67 40 35 30 23 16 17 14 15 21 23 18 31 29 11 24 23 21 23 21 21 22
79 71 66 69 94 100 89 100 100 100 100 100 100 100 100 91 75 65 64 58 60 58 42 33 29 20 16 16 19 21 25 35 33 29 35 39 37 28 27 30 26 25 28 26 24
49 52 58 56 94 100 100 97 98 96 93 99 98 80 71 71 67 46 49 50 43 32 30 20 17 15 18 18 36 38 50 31 43 44 41 33 28 26 26 24 28 34 31 21 19
39 51 57 73 61 65 63 73 55 68 82 89 80 62 57 47 45 46 47 33 35 27 20 16 17 22 32 46 52 44 52 76 55 45 36 32 37 34 31 36 38 30 20 27 21
26 37 47 62 42 48 65 56 52 61 73 66 51 42 47 46 45 36 33 26 21 19 18 25 32 48 60 59 58 65 57 53 49 42 39 38 38 36 38 34 28 22 26 23 18
21 27 41 42 47 47 58 51 56 67 59 46 36 38 38 36 32 29 24 21 20 22 33 53 64 73 65 70 58 62 61 48 40 44 38 34 29 31 28 26 20 18 16 14 18
19 19 33 39 42 44 45 53 53 47 44 36 42 35 29 23 23 22 22 26 34 48 64 76 77 72 71 68 64 60 45 43 35 29 28 26 29 26 20 16 14 14 19 28 54
13 16 19 17 18 21 22 23 22 27 25 24 24 21 21 22 22 30 40 54 66 78 84 82 75 73 70 71 64 57 38 32 27 25 21 19 17 14 14 14 16 22 49 56 99
14 17 21 20 21 17 21 24 23 22 25 25 22 24 23 35 53 60 76 88 92 85 78 78 76 68 69 61 47 36 32 27 24 16 15 16 14 13 15 25 34 62 78 100 100